Location: Unspecified
(0.0000°N, 0.0000°E)
Time: 10:40:14
(UTC+02:00)

Haruka - Visible Passes

Search period start: 23 October 2014 00:00
Search period end: 01 November 2014 23:00
Orbit: 524 x 21254 km, 31.2° (Epoch: 22 October)

Date Brightness Start Highest point End Pass type
(mag) Time Alt. Az. Time Alt. Az. Time Alt. Az.
23 Oct 7.2 17:46:12 10° NW 22:08:57 59° SW 22:34:39 10° SE visible
24 Oct 7.0 19:28:07 10° WNW 23:25:00 38° SW 23:41:20 15° SSE visible
25 Oct 5.0 06:16:43 10° SSW 06:19:53 26° SE 06:26:11 10° E visible
25 Oct 7.0 23:42:06 10° W 00:39:08 21° SW 00:47:04 16° S visible
27 Oct 7.6 14:24:18 10° NW 18:40:57 87° SW 19:33:50 10° SE visible
28 Oct 7.4 15:44:28 10° NW 20:09:04 67° SW 20:43:20 10° SE visible
29 Oct 7.2 17:13:42 10° NW 21:28:58 46° SW 21:51:51 10° SSE visible
30 Oct 5.1 04:27:48 14° SSE 04:28:44 16° SE 04:31:46 10° E visible
30 Oct 7.0 19:16:32 10° WNW 22:45:01 28° SW 22:59:09 11° SSE visible
31 Oct 3.7 05:33:25 11° SW 05:36:57 62° SE 05:47:12 10° ENE visible
31 Oct 7.1 23:47:32 10° WSW 23:59:40 13° SW 00:04:49 11° SSW visible
